DELTA 1 DEB, 40761

Orbit data source: Space-Track

DELTA 1 DEB, 40761 is space debris in SSO originally from a launch on Thu, 29 Jul 1976 UTC launched from the Air Force Western Test Range (AFWTR). Debris objects in space refer to the collection of defunct objects orbiting the Earth. Examples of debris include non-operational satellites, rocket bodies, and fragments generated from explosions, collisions, or faulty payload assembly.

Loading next visibility...
Identifier
40761, 1976-077GE
Orbit
SSO
Country
Flag of USUS
Related business
Manufacturer
Unknown
Mission
Spacecraft
Bus & Motor
Unknown
Mass
Unknown
Launch date (UTC)
1976-07-29 (49 years ago)
Launch vehicle
Unknown
Launch site
Air Force Western Test Range (AFWTR)
Object type
Payload
Rocket body
Debris
Shape & HBR
Unknown shape, 0.1 m
Radar Cross Section
Small (<0.1 m²)

Expand to show TLE details & history
Last TLE update: 2 days ago

TLE from 2 days ago
0 DELTA 1 DEB
1 40761U 76077GE  25300.78539124  .00000274  00000-0  32680-2 0  9998
2 40761 102.4816 228.0724 0178740  33.1844 328.0266 12.11082746317995
Epoch: 2025-10-27T18:50Z
TLE epoch observation values (Epoch: 2025-10-27T18:50:57.803Z)
Latitude
Longitude
-91.0507°
Altitude
1,513.379 km
Speed
7.162 km/s
True Right ascension
15h 12m 17s
True Declination
0° 00' 00"
Sunlit
Object was in daylight at epoch
Visualization orbit readout
Latitude
Unknown
Longitude
Unknown
Altitude
Unknown
Speed
Unknown
Apparent Right ascension
Unknown
Apparent Declination
Unknown
Sunlit
N/A
Visualization observer readout
Local Sidereal Time
01:22:53
Azimuth
Unknown
Elevation
Unknown
Doppler factor
Unknown
Orbital elements
Apogee altitude
1,772.384 km
Perigee altitude
1,486.135 km
Semi-major axis
8,007.397 km
Eccentricity
0.01787
Inclination
102.4816°
RAAN
228.0724°
Arg. of periapsis
33.1844°
True anomaly
326.92115°
Mean anomaly
328.0266°
Eccentric anomaly
327.47599°
Mean motion
3.02905 °/min
Orbital period
118.85 mins
BSTAR
0.003268
Loading maneuver chart data...
Computing Atmospheric mass density...
Loading historical data...
Loading historical data...
Loading historical data...
Loading historical data...
Loading historical data...
Loading historical data...
Loading historical data...

Documentation

Showing up to 5 results
|